KQ4NAL Weather Reports


Display with metric or nautical units.
time (UTC)temp
F
wind
direction
speed
MPH
gust
MPH
rain 1hr
in
rain 24hr
in
rain mn
in
humidity
%
barometer
mb
20260906165238 79 349 5.0 7.0 0.00 0.00 0.00 58 1017.2
20260906164738 80 1 4.0 6.0 0.00 0.00 0.00 57 1016.9
20260906164233 80 356 6.0 7.0 0.00 0.00 0.00 58 1017.2
20260906163729 78 23 5.0 7.0 0.00 0.00 0.00 60 1017.4
20260906163225 79 23 4.0 5.0 0.00 0.00 0.00 60 1017.4
20260906162721 78 12 8.0 9.0 0.00 0.00 0.00 62 1017.6
20260906162216 78 356 5.0 7.0 0.00 0.00 0.00 63 1017.7
20260906161710 78 325 5.0 8.0 0.00 0.00 0.00 64 1017.4
20260906161210 78 94 4.0 6.0 0.00 0.00 0.00 64 1017.8
20260906160709 78 344 6.0 9.0 0.00 0.00 0.00 65 1017.7
20260906160203 78 2 2.0 5.0 0.00 0.00 0.00 67 1018.0
20260906155700 77 354 2.0 2.0 0.00 0.00 0.00 67 1017.9
20260906155156 77 330 5.0 8.0 0.00 0.00 0.00 67 1018.0
20260906154650 77 354 4.0 5.0 0.00 0.00 0.00 66 1017.7
20260906154145 78 17 2.0 3.0 0.00 0.00 0.00 68 1017.8
20260906153644 77 16 7.0 9.0 0.00 0.00 0.00 67 1017.6
20260906153139 77 331 6.0 8.0 0.00 0.00 0.00 68 1017.6
20260906152633 76 23 6.0 7.0 0.00 0.00 0.00 68 1017.4
20260906152127 77 356 0.0 0.0 0.00 0.00 0.00 69 1017.4
20260906151622 77 355 2.0 2.0 0.00 0.00 0.00 69 1017.6
20260906151118 76 358 6.0 8.0 0.00 0.00 0.00 70 1017.6
20260906150613 75 20 8.0 10.0 0.00 0.00 0.00 71 1017.6
20260906150109 76 349 1.0 2.0 0.00 0.00 0.00 72 1017.3
20260906145607 76 331 4.0 5.0 0.00 0.00 0.00 72 1017.1
20260906145101 76 72 7.0 9.0 0.00 0.00 0.00 72 1017.0
20260906144550 76 357 0.0 0.0 0.00 0.00 0.00 72 1017.2
20260906144046 75 3 2.0 2.0 0.00 0.00 0.00 74 1017.2
20260906143541 75 82 3.0 3.0 0.00 0.00 0.00 75 1017.2
20260906143037 74 11 2.0 3.0 0.00 0.00 0.00 75 1017.2
20260906142531 73 14 5.0 7.0 0.00 0.00 0.00 78 1017.2
20260906142026 73 352 1.0 2.0 0.00 0.00 0.00 77 1017.3
20260906141520 73 3 1.0 2.0 0.00 0.00 0.00 78 1017.3
20260906141015 72 344 3.0 5.0 0.00 0.00 0.00 78 1017.1
20260906140515 72 340 3.0 5.0 0.00 0.00 0.00 78 1017.2
20260906140014 72 8 7.0 8.0 0.00 0.00 0.00 78 1017.2
20260906135511 72 3 1.0 2.0 0.00 0.00 0.00 79 1017.2
20260906135007 71 329 4.0 6.0 0.00 0.00 0.00 79 1017.0
20260906134503 71 4 1.0 2.0 0.00 0.00 0.00 79 1017.2
20260906134003 71 355 3.0 5.0 0.00 0.00 0.00 80 1016.8
20260906133458 72 12 4.0 6.0 0.00 0.00 0.00 78 1017.0
20260906132954 71 344 0.0 1.0 0.00 0.00 0.00 80 1017.1
20260906132449 71 3 3.0 5.0 0.00 0.00 0.00 80 1017.0
20260906131944 70 332 2.0 3.0 0.00 0.00 0.00 81 1017.1
20260906131439 70 6 6.0 8.0 0.00 0.00 0.00 81 1017.0
20260906130935 70 317 3.0 3.0 0.00 0.00 0.00 83 1017.1
20260906130434 69 348 0.0 0.0 0.00 0.00 0.00 85 1017.1
20260906125928 68 359 0.0 0.0 0.00 0.00 0.00 86 1017.0
20260906125426 68 342 3.0 5.0 0.00 0.00 0.00 86 1017.1
20260906124920 68 4 3.0 3.0 0.00 0.00 0.00 86 1016.9
20260906124416 68 345 1.0 2.0 0.00 0.00 0.00 87 1016.9
20260906123915 68 10 4.0 5.0 0.00 0.00 0.00 88 1016.6
20260906123410 68 349 2.0 2.0 0.00 0.00 0.00 90 1016.8
20260906122910 68 354 1.0 1.0 0.00 0.00 0.00 90 1016.6
20260906122405 68 3 1.0 2.0 0.00 0.00 0.00 90 1016.6
20260906121902 68 8 3.0 5.0 0.00 0.00 0.00 92 1016.7
20260906121357 68 349 2.0 3.0 0.00 0.00 0.00 92 1016.5
20260906120854 68 338 2.0 3.0 0.00 0.00 0.00 93 1016.3
20260906120349 67 335 4.0 5.0 0.00 0.00 0.00 94 1016.4
20260906115845 67 357 2.0 2.0 0.00 0.00 0.00 95 1016.1
20260906115340 67 8 0.0 1.0 0.00 0.00 0.00 96 1016.1
20260906114839 67 353 1.0 2.0 0.00 0.00 0.00 96 1016.0
20260906114335 68 330 3.0 3.0 0.00 0.00 0.00 97 1016.1
20260906113830 68 2 3.0 3.0 0.00 0.00 0.00 97 1015.8
20260906113329 68 2 3.0 5.0 0.00 0.00 0.00 98 1015.8
20260906112824 68 337 2.0 2.0 0.00 0.00 0.00 99 1015.8
20260906112320 68 340 2.0 2.0 0.00 0.00 0.00 99 1015.7
20260906111815 69 347 1.0 2.0 0.00 0.00 0.00 99 1015.7
20260906111314 69 338 1.0 2.0 0.00 0.00 0.00 99 1015.6
20260906110809 69 2 1.0 2.0 0.00 0.00 0.00 99 1015.8
20260906110305 69 350 3.0 3.0 0.00 0.00 0.00 99 1015.7
20260906105804 69 359 3.0 3.0 0.00 0.00 0.00 99 1015.6
20260906105300 69 14 3.0 3.0 0.00 0.00 0.00 99 1015.4
20260906104755 69 10 2.0 2.0 0.00 0.00 0.00 99 1015.3
20260906104253 69 1 2.0 2.0 0.00 0.00 0.00 99 1015.5
20260906103752 69 352 2.0 2.0 0.00 0.00 0.00 99 1015.2
20260906103246 70 353 7.0 8.0 0.00 0.00 0.00 99 1015.1
20260906102742 70 5 2.0 3.0 0.00 0.00 0.00 99 1015.1
20260906102240 70 351 2.0 2.0 0.00 0.00 0.00 99 1015.0
20260906101736 70 359 0.0 1.0 0.00 0.00 0.00 99 1015.2
20260906101230 70 6 3.0 3.0 0.00 0.00 0.00 99 1015.0
20260906100726 70 355 3.0 3.0 0.00 0.00 0.00 99 1014.9
20260906100226 70 5 2.0 2.0 0.00 0.00 0.00 99 1014.8
20260906095721 70 346 2.0 2.0 0.00 0.00 0.00 99 1015.1
20260906095216 70 355 2.0 2.0 0.00 0.00 0.00 99 1015.0
20260906094715 70 16 2.0 2.0 0.00 0.00 0.00 99 1014.9
20260906094210 70 356 1.0 1.0 0.00 0.00 0.00 99 1014.9
20260906093707 70 1 1.0 2.0 0.00 0.00 0.00 99 1014.8
20260906093201 70 322 1.0 1.0 0.00 0.00 0.00 99 1014.7
20260906092657 70 348 2.0 2.0 0.00 0.00 0.00 99 1014.8
20260906092156 70 357 1.0 2.0 0.00 0.00 0.00 99 1014.6
20260906091652 70 355 0.0 0.0 0.00 0.00 0.00 99 1014.7
20260906091149 70 341 1.0 1.0 0.00 0.00 0.00 99 1014.6
20260906090645 70 346 0.0 0.0 0.00 0.00 0.00 99 1014.6
20260906090144 70 345 0.0 1.0 0.00 0.00 0.00 99 1014.5
20260906085642 70 348 0.0 0.0 0.00 0.00 0.00 99 1014.4
20260906085137 70 10 2.0 2.0 0.00 0.00 0.00 99 1014.5
20260906084632 70 9 1.0 2.0 0.00 0.00 0.00 99 1014.4
20260906084131 70 352 0.0 0.0 0.00 0.00 0.00 99 1014.3
20260906083626 70 347 0.0 0.0 0.00 0.00 0.00 99 1014.7
20260906083121 70 345 1.0 2.0 0.00 0.00 0.00 99 1014.5
20260906082617 70 340 1.0 1.0 0.00 0.00 0.00 99 1014.3
20260906082112 70 11 4.0 6.0 0.00 0.00 0.00 99 1014.5
20260906081608 70 358 0.0 2.0 0.00 0.00 0.00 99 1014.2
20260906081103 70 335 0.0 1.0 0.00 0.00 0.00 99 1014.4
20260906080559 70 337 1.0 1.0 0.00 0.00 0.00 99 1014.3
20260906080055 70 340 0.0 0.0 0.00 0.00 0.00 99 1014.3
20260906075549 70 347 0.0 0.0 0.00 0.00 0.00 99 1014.3
20260906075044 70 359 3.0 3.0 0.00 0.00 0.00 99 1014.2
20260906074539 70 356 1.0 2.0 0.00 0.00 0.00 99 1014.2
20260906074037 70 0 1.0 2.0 0.00 0.00 0.00 99 1014.1
20260906073533 70 334 0.0 0.0 0.00 0.00 0.00 99 1014.2
20260906073029 70 5 1.0 2.0 0.00 0.00 0.00 99 1014.5
20260906072529 70 347 3.0 3.0 0.00 0.00 0.00 99 1014.3
20260906072025 70 344 0.0 1.0 0.00 0.00 0.00 99 1014.2
20260906071521 70 342 2.0 2.0 0.00 0.00 0.00 99 1014.4
20260906071016 70 344 0.0 0.0 0.00 0.00 0.00 99 1014.4
20260906070512 70 347 0.0 0.0 0.00 0.00 0.00 99 1014.2
20260906070008 70 344 0.0 0.0 0.00 0.00 0.00 99 1014.4
20260906065507 70 349 0.0 0.0 0.00 0.00 0.00 99 1014.5
20260906065003 70 348 0.0 0.0 0.00 0.00 0.00 99 1014.4
20260906064459 70 351 0.0 0.0 0.00 0.00 0.00 99 1014.6
20260906063954 70 348 0.0 0.0 0.00 0.00 0.00 99 1014.4
20260906063449 70 342 0.0 0.0 0.00 0.00 0.00 99 1014.5
20260906062944 70 344 0.0 0.0 0.00 0.00 0.00 99 1014.5
20260906062439 70 354 0.0 0.0 0.00 0.00 0.00 99 1014.5
20260906061933 70 346 0.0 0.0 0.00 0.00 0.00 99 1014.7
20260906061430 69 355 0.0 0.0 0.00 0.00 0.00 99 1014.5
20260906060924 70 344 0.0 0.0 0.00 0.00 0.00 99 1014.7
20260906060421 70 344 0.0 0.0 0.00 0.00 0.00 99 1014.4
20260906055917 70 344 0.0 0.0 0.00 0.00 0.00 99 1014.6
20260906055413 70 351 2.0 2.0 0.00 0.00 0.00 99 1014.6
20260906054908 70 359 1.0 2.0 0.00 0.00 0.00 99 1014.7
20260906054403 69 359 2.0 2.0 0.00 0.00 0.00 99 1014.7
20260906053859 69 351 1.0 2.0 0.00 0.00 0.00 99 1014.6
20260906053355 69 349 1.0 1.0 0.00 0.00 0.00 99 1014.7
20260906052850 69 352 0.0 1.0 0.00 0.00 0.00 99 1014.6
20260906052347 69 358 1.0 1.0 0.00 0.00 0.00 99 1014.5
20260906051843 69 344 0.0 0.0 0.00 0.00 0.00 99 1014.6
20260906051343 69 343 0.0 0.0 0.00 0.00 0.00 99 1014.7
20260906050839 69 343 0.0 0.0 0.00 0.00 0.00 99 1014.6
20260906050333 69 344 0.0 0.0 0.00 0.00 0.00 99 1014.8
20260906045832 69 344 0.0 0.0 0.00 0.00 0.00 99 1014.4
20260906045327 69 344 0.0 0.0 0.00 0.00 0.00 99 1014.3
20260906044823 69 344 0.0 0.0 0.00 0.00 0.00 99 1014.5
20260906044323 69 344 0.0 0.0 0.00 0.00 0.00 99 1014.2
20260906043819 69 345 0.0 0.0 0.00 0.00 0.00 99 1014.1
20260906043314 69 345 0.0 0.0 0.00 0.00 0.00 99 1014.1
20260906042809 69 345 0.0 0.0 0.00 0.00 0.00 99 1014.0
20260906042308 69 345 0.0 0.0 0.00 0.00 0.00 99 1014.3
20260906041803 69 346 0.0 0.0 0.00 0.00 0.00 99 1013.8
20260906041253 69 342 0.0 0.0 0.00 0.00 0.00 99 1013.9
20260906040748 69 339 0.0 0.0 0.00 0.00 0.00 99 1014.0
20260906040244 69 344 0.0 0.0 0.00 0.00 0.00 99 1014.2
20260906035739 69 343 0.0 0.0 0.00 0.06 0.06 99 1014.0
20260906035234 69 344 0.0 0.0 0.00 0.06 0.06 99 1014.0
20260906034734 70 344 0.0 0.0 0.00 0.06 0.06 99 1014.0
20260906034228 69 344 0.0 0.0 0.00 0.06 0.06 99 1013.9
20260906033719 70 344 0.0 0.0 0.00 0.06 0.06 99 1013.9
20260906033219 70 344 0.0 0.0 0.00 0.06 0.06 99 1013.9
20260906032716 70 344 0.0 0.0 0.00 0.06 0.06 99 1014.0
20260906032215 70 341 0.0 0.0 0.00 0.06 0.06 99 1013.8
20260906031711 70 344 0.0 0.0 0.00 0.06 0.06 99 1013.8
20260906031206 70 348 0.0 0.0 0.00 0.06 0.06 99 1013.7
20260906030705 70 345 0.0 0.0 0.00 0.06 0.06 99 1013.7
20260906030201 70 347 0.0 0.0 0.00 0.06 0.06 99 1013.7
20260906025659 70 347 0.0 0.0 0.00 0.06 0.06 99 1013.7
20260906025154 70 347 0.0 0.0 0.00 0.06 0.06 99 1013.9
20260906024649 70 340 0.0 0.0 0.00 0.06 0.06 99 1013.9
20260906024148 70 345 0.0 0.0 0.00 0.06 0.06 99 1013.9
20260906023644 71 347 0.0 0.0 0.00 0.06 0.06 99 1013.6
20260906023144 71 349 0.0 0.0 0.00 0.06 0.06 99 1013.6
20260906022639 71 1 0.0 0.0 0.00 0.06 0.06 99 1013.7
20260906022135 71 355 0.0 0.0 0.00 0.06 0.06 99 1013.8
20260906021631 71 337 0.0 0.0 0.00 0.06 0.06 99 1013.9
20260906021128 71 342 0.0 0.0 0.00 0.06 0.06 99 1014.1
20260906020623 71 348 0.0 0.0 0.00 0.06 0.06 99 1014.0
20260906020118 71 344 0.0 0.0 0.05 0.06 0.06 99 1014.2
20260906015613 71 346 0.0 0.0 0.05 0.06 0.06 99 1014.2
20260906015111 71 345 0.0 0.0 0.00 0.05 0.05 99 1014.1
20260906014606 71 0 0.0 1.0 0.00 0.05 0.05 99 1013.9
20260906014103 72 353 1.0 2.0 0.00 0.05 0.05 99 1014.3
20260906013558 72 349 0.0 0.0 0.00 0.05 0.05 99 1014.1
20260906013053 72 8 4.0 5.0 0.00 0.05 0.05 99 1014.0
20260906012548 72 357 0.0 1.0 0.00 0.05 0.05 99 1013.9
20260906012047 72 339 1.0 2.0 0.00 0.05 0.05 99 1014.2
20260906011544 72 7 0.0 0.0 0.00 0.05 0.05 99 1014.3
20260906011043 72 302 0.0 0.0 0.07 0.05 0.05 99 1014.1
20260906010539 72 347 0.0 0.0 0.07 0.05 0.05 99 1013.7
20260906010035 72 345 0.0 0.0 0.00 0.04 0.04 98 1013.4
20260906005534 72 311 0.0 0.0 0.00 0.04 0.04 98 1013.5
20260906005033 73 341 0.0 0.0 0.00 0.04 0.04 97 1013.5
20260906004533 73 347 0.0 0.0 0.00 0.04 0.04 97 1013.6
20260906004028 73 2 1.0 2.0 0.12 0.04 0.04 96 1013.4
20260906003523 73 342 0.0 1.0 0.17 0.04 0.04 95 1013.6
20260906003019 74 11 3.0 3.0 0.12 0.02 0.02 93 1013.9
20260906002513 74 355 3.0 3.0 0.07 0.01 0.01 92 1013.5
20260906002008 75 10 7.0 9.0 0.00 0.00 0.00 90 1013.5
20260906001504 76 23 3.0 3.0 0.00 0.00 0.00 88 1013.4
20260906000958 77 12 4.0 7.0 0.00 0.00 0.00 87 1013.2
20260906000455 78 354 6.0 7.0 0.00 0.00 0.00 87 1013.4
20260905235954 78 350 5.0 6.0 0.00 0.00 0.00 88 1013.3
20260905235448 78 352 0.0 0.0 0.00 0.00 0.00 87 1012.8
20260905234943 78 350 0.0 0.0 0.00 0.00 0.00 87 1012.7
20260905234438 78 0 0.0 0.0 0.00 0.00 0.00 86 1012.7
20260905233933 78 339 0.0 0.0 0.00 0.00 0.00 86 1013.0
20260905233429 78 332 1.0 1.0 0.00 0.00 0.00 86 1013.0
20260905232927 79 332 0.0 0.0 0.00 0.00 0.00 85 1013.1
20260905232423 79 192 2.0 3.0 0.00 0.00 0.00 84 1013.1
20260905231918 79 342 2.0 3.0 0.00 0.00 0.00 84 1013.1
20260905231415 79 20 1.0 1.0 0.00 0.00 0.00 83 1013.3
20260905230911 80 254 3.0 3.0 0.00 0.00 0.00 83 1012.8
20260905230408 80 322 2.0 3.0 0.00 0.00 0.00 82 1013.1
20260905225901 80 199 3.0 3.0 0.00 0.00 0.00 81 1013.3
20260905225357 80 346 0.0 0.0 0.00 0.00 0.00 81 1013.1
20260905224852 80 248 2.0 2.0 0.00 0.00 0.00 80 1013.5
20260905224348 80 205 2.0 3.0 0.00 0.00 0.00 81 1013.3
20260905223842 81 316 1.0 1.0 0.00 0.00 0.00 81 1013.2
20260905223340 81 8 2.0 2.0 0.00 0.00 0.00 82 1012.8
20260905222840 81 323 2.0 2.0 0.00 0.00 0.00 82 1013.1
20260905222338 81 356 1.0 1.0 0.00 0.00 0.00 81 1013.1
20260905221835 82 355 1.0 1.0 0.00 0.00 0.00 80 1013.1
20260905221331 82 7 0.0 0.0 0.00 0.00 0.00 80 1013.0
20260905220827 82 42 1.0 2.0 0.00 0.00 0.00 80 1013.0
20260905220323 82 226 3.0 5.0 0.00 0.00 0.00 79 1012.8
20260905215822 82 317 2.0 3.0 0.00 0.00 0.00 78 1012.5
20260905215318 83 34 3.0 5.0 0.00 0.00 0.00 75 1012.8
20260905214814 83 259 2.0 2.0 0.00 0.00 0.00 77 1012.8
20260905214309 83 340 3.0 3.0 0.00 0.00 0.00 76 1012.5
20260905213805 84 207 3.0 3.0 0.00 0.00 0.00 77 1012.8
20260905213301 84 356 0.0 0.0 0.00 0.00 0.00 75 1012.6
20260905212801 85 8 5.0 6.0 0.00 0.00 0.00 74 1012.5
20260905212255 84 335 0.0 0.0 0.00 0.00 0.00 76 1012.5
20260905211755 85 44 2.0 3.0 0.00 0.00 0.00 73 1012.6
20260905211250 85 354 0.0 0.0 0.00 0.00 0.00 73 1012.8
20260905210747 85 355 3.0 3.0 0.00 0.00 0.00 73 1013.0
20260905210241 85 349 0.0 0.0 0.00 0.00 0.00 72 1012.5
20260905205739 85 3 2.0 2.0 0.00 0.00 0.00 72 1012.4
20260905205234 85 344 2.0 2.0 0.00 0.00 0.00 71 1012.5
20260905204728 86 340 0.0 0.0 0.00 0.00 0.00 70 1012.6
20260905204224 87 109 1.0 3.0 0.00 0.00 0.00 67 1012.6
20260905203724 90 160 2.0 5.0 0.00 0.00 0.00 63 1012.6
20260905203219 92 27 1.0 2.0 0.00 0.00 0.00 59 1012.7
20260905202715 91 341 0.0 1.0 0.00 0.00 0.00 60 1012.7
20260905202209 91 19 5.0 9.0 0.00 0.00 0.00 60 1012.6
20260905201705 92 323 1.0 3.0 0.00 0.00 0.00 59 1012.8
20260905201205 92 324 1.0 1.0 0.00 0.00 0.00 57 1012.4
20260905200700 94 355 5.0 7.0 0.00 0.00 0.00 55 1012.7
20260905200155 94 316 1.0 2.0 0.00 0.00 0.00 56 1012.6
20260905195653 93 25 3.0 3.0 0.00 0.00 0.00 56 1012.8
20260905195149 92 271 0.0 2.0 0.00 0.00 0.00 58 1012.7
20260905194644 92 333 2.0 2.0 0.00 0.00 0.00 57 1013.0
20260905194138 93 337 0.0 0.0 0.00 0.00 0.00 54 1013.1
20260905193633 93 329 1.0 3.0 0.00 0.00 0.00 55 1013.2
20260905193132 95 319 0.0 1.0 0.00 0.00 0.00 54 1013.3
20260905192628 94 342 1.0 1.0 0.00 0.00 0.00 52 1013.4
20260905192125 93 328 2.0 3.0 0.00 0.00 0.00 53 1013.4
20260905191624 92 308 4.0 5.0 0.00 0.00 0.00 54 1013.5
20260905191122 94 311 1.0 1.0 0.00 0.00 0.00 53 1013.6
20260905190621 93 324 2.0 3.0 0.00 0.00 0.00 53 1013.6
20260905190121 94 345 1.0 2.0 0.00 0.00 0.00 52 1014.1
20260905185619 93 324 4.0 6.0 0.00 0.00 0.00 52 1013.8
20260905185114 94 259 2.0 3.0 0.00 0.00 0.00 52 1014.0
20260905184608 94 331 4.0 6.0 0.00 0.00 0.00 53 1013.9
20260905184107 92 351 3.0 3.0 0.00 0.00 0.00 53 1014.0
20260905183606 93 242 4.0 6.0 0.00 0.00 0.00 54 1014.0
20260905183102 93 273 2.0 2.0 0.00 0.00 0.00 53 1014.1
20260905182601 92 227 5.0 7.0 0.00 0.00 0.00 54 1014.3
20260905182057 92 284 3.0 3.0 0.00 0.00 0.00 56 1014.3
20260905181556 91 249 3.0 5.0 0.00 0.00 0.00 56 1014.3
20260905181055 93 1 3.0 3.0 0.00 0.00 0.00 55 1014.2
20260905180550 94 234 1.0 2.0 0.00 0.00 0.00 54 1014.3
20260905180046 92 336 0.0 0.0 0.00 0.00 0.00 56 1014.2
20260905175545 91 277 1.0 1.0 0.00 0.00 0.00 56 1014.0
20260905175041 91 220 4.0 5.0 0.00 0.00 0.00 56 1014.2
20260905174536 91 295 3.0 3.0 0.00 0.00 0.00 55 1014.1
20260905174031 91 344 1.0 1.0 0.00 0.00 0.00 55 1014.1
20260905173528 92 350 0.0 0.0 0.00 0.00 0.00 54 1014.3
20260905173023 91 314 1.0 2.0 0.00 0.00 0.00 57 1014.2
20260905172521 90 256 2.0 2.0 0.00 0.00 0.00 56 1014.2
20260905172017 90 337 1.0 2.0 0.00 0.00 0.00 57 1014.4
20260905171513 89 340 1.0 1.0 0.00 0.00 0.00 56 1014.6
20260905171009 91 317 0.0 1.0 0.00 0.00 0.00 54 1014.5
20260905170506 91 319 0.0 0.0 0.00 0.00 0.00 55 1014.6
20260905170006 90 287 0.0 0.0 0.00 0.00 0.00 56 1014.9
20260905165501 89 304 1.0 1.0 0.00 0.00 0.00 57 1014.8